Regional Weather Roundup
Issued by NWS

Home | Current Version | Previous Version | Graphics & Text | Print | Product List | Glossary On
Versions: 1 2 3 4 5 6 7 8 9 10 11 12 13 14 15 16 17 18 19 20 21 22 23 24 25 26 27 28 29 30 31 32 33 34 35 36 37 38 39 40 41 42 43 44 45 46 47 48 49 50
000
ASUS45 KCYS 191310
RWRWY

WYOMING REGIONAL WEATHER ROUNDUP
NATIONAL WEATHER SERVICE CHEYENNE WY
700 AM MDT SUN OCT 19 2014

NOTE:  "FAIR" INDICATES FEW OR NO CLOUDS BELOW 12,000 FEET
WITH NO SIGNIFICANT WEATHER AND/OR OBSTRUCTIONS TO VISIBILITY.

WYZ001-191400-
YELLOWSTONE NATIONAL PARK

CITY           SKY/WX    TMP DP  RH WIND       PRES   REMARKS
LK YELLOWSTONE   N/A     25  23  92 CALM      30.26F
W YELLOWSTONE  NOT AVBL

$$
WYZ002>013-054>058-071-098>099-191400-
NORTHERN WYOMING

CITY           SKY/WX    TMP DP  RH WIND       PRES   REMARKS
JACKSON        CLEAR     27  27 100 N3        30.22F
CODY           CLEAR    N/A N/A N/A SW7       30.09F
GREYBULL       CLEAR     37  28  70 CALM      30.09R
WORLAND        CLEAR     37  30  75 S9        30.09R WCI  30
SHERIDAN       CLEAR     37  30  75 CALM      30.08R
BUFFALO        CLEAR     47  30  51 W9        30.12S
GILLETTE       CLEAR     35  32  88 S5        30.09R WCI  31
HULETT         FAIR      41  34  75 S3        30.08
NEWCASTLE      FAIR      45  32  61 CALM      30.06

$$
WYZ014>020-022>026-101>103-191400-
CENTRAL WYOMING

CITY           SKY/WX    TMP DP  RH WIND       PRES   REMARKS
BIG PINEY      PTCLDY    27  22  81 CALM      30.22S
PINEDALE       SUNNY     27  27 100 NW7       30.22S WCI  19
DUBOIS         FAIR      34  27  75 W12       30.21R WCI  25
LANDER         CLEAR     46  30  53 CALM      30.13R
RIVERTON       PTCLDY    37  29  72 NW7       30.14S WCI  32
CASPER         CLEAR     37  28  70 W8        30.14R WCI  31
DOUGLAS        CLEAR     38  32  79 NW6       30.13R WCI  33

$$
WYZ021-027>030-104>119-191400-
SOUTHERN WYOMING

CITY           SKY/WX    TMP DP  RH WIND       PRES   REMARKS
EVANSTON       PTCLDY    40  27  59 E5        30.20S
KEMMERER       SUNNY     32  28  86 N9        30.22R WCI  24
FORT BRIDGER   FAIR      39  29  66 W8        30.23R WCI  34
ROCK SPRINGS   PTCLDY    40  26  57 NW3       30.20R
DIXON          FAIR      34  27  77 CALM      30.23S HAZE
RAWLINS        MOCLDY    33  24  69 CALM      30.20R
SARATOGA       FAIR      36  27  69 CALM      30.22R
LARAMIE        PTCLDY    33  26  75 SE9       30.20R WCI  25
CHEYENNE       PTCLDY    49  26  41 NW9       30.13R
TORRINGTON     CLEAR     36  33  89 W6        30.06R WCI  31
PINE BLUFFS    FAIR      37  32  81 CALM      30.09R

$$


USA.gov is the U.S. government's official web portal to all federal, state and local government web resources and services.